Theta_e
331 331 331 331 331 330 329 330 330 329 328 328 327 326 327 327 327 326 326 326 326 324 322 324 326 328 329 329 329 328 329 329 328 327 327 328 328 328 328 328 327 326 326 325 325 326 326 327 327 327 326 325 324 324 323 323 322 320 318 319 319 319 319
332 332 332 331 330 329 329 329 329 329 329 328 327 326 326 327 326 326 325 324 323 322 322 323 325 328 329 329 329 328 328 329 329 328 328 328 327 327 328 328 327 326 326 325 325 326 325 326 327 327 326 325 323 323 323 323 320 319 318 319 318 316 315
332 332 331 330 329 328 328 329 329 329 329 328 326 326 326 326 326 326 326 325 324 323 324 325 326 328 328 328 328 327 327 328 329 329 329 328 326 327 328 327 326 327 326 325 326 326 325 325 326 325 325 324 323 323 324 323 320 319 320 319 318 317 315
332 331 330 329 329 328 328 329 328 328 329 327 326 326 326 327 327 327 328 328 326 326 326 327 327 328 328 328 328 327 327 328 329 329 329 328 327 327 327 327 327 326 326 325 325 326 326 325 325 324 323 323 323 323 323 322 319 319 320 319 318 317 315
330 329 329 329 328 328 328 328 328 328 328 326 325 326 327 328 328 327 328 328 327 327 327 327 328 328 328 328 328 328 327 328 329 329 328 327 327 327 327 326 327 326 326 325 325 326 326 325 324 323 322 323 323 322 321 320 319 319 319 318 318 316 314
329 328 328 328 327 327 327 327 327 327 326 325 325 326 328 329 328 328 328 327 327 327 327 327 328 327 327 328 329 329 328 327 328 328 327 326 326 327 327 327 327 326 327 326 325 326 326 325 325 323 322 322 322 321 319 318 318 319 320 319 317 315 314
328 327 327 326 326 326 325 325 326 326 326 326 326 327 328 329 328 328 327 327 327 327 327 327 327 327 328 328 328 328 328 327 327 328 327 326 326 327 327 327 326 326 327 326 326 326 326 325 325 323 322 322 321 320 318 317 318 318 320 319 317 314 313
328 327 327 325 326 325 325 325 326 326 326 327 327 328 329 329 328 327 327 326 327 326 326 326 327 327 328 328 327 327 328 328 327 327 327 327 326 326 327 327 326 326 326 327 326 326 326 326 325 324 322 321 320 319 317 317 317 317 318 317 316 314 313
329 327 326 326 326 326 325 325 326 326 327 328 329 330 331 330 328 327 326 326 326 326 326 327 327 327 327 326 326 327 328 327 327 327 326 326 327 327 327 327 326 326 325 326 327 326 326 326 325 324 323 321 320 318 317 316 316 316 316 315 314 314 313
329 328 327 327 326 325 325 324 326 327 327 328 329 329 330 330 329 327 326 326 326 325 326 326 326 326 325 326 326 326 327 326 327 327 326 325 326 327 328 327 327 326 324 325 327 326 326 326 325 325 323 322 320 318 316 316 315 315 315 314 313 313 312
330 329 329 327 325 324 323 323 326 327 327 328 327 327 328 329 328 326 325 325 325 325 325 325 325 325 325 325 326 326 326 326 326 326 325 325 325 325 327 327 327 326 323 323 326 326 326 326 326 325 322 321 319 316 314 314 315 316 315 314 313 312 311
331 330 329 327 324 323 324 325 327 328 327 327 327 326 326 326 325 324 323 323 324 324 324 325 325 325 325 324 325 326 327 326 325 325 324 324 324 324 326 326 327 326 324 323 325 326 325 325 326 324 323 321 317 314 313 312 313 315 315 314 312 311 311
330 330 330 328 325 325 327 328 328 328 327 327 327 326 325 324 324 324 323 322 322 323 324 325 325 325 324 324 325 326 326 325 326 325 324 323 324 324 325 326 326 325 324 324 325 324 324 325 325 324 324 322 318 314 313 312 312 313 314 313 312 311 311
329 330 331 330 328 328 329 330 329 328 328 327 326 325 325 323 323 323 324 323 320 321 323 325 325 325 325 324 325 326 326 326 326 326 324 322 323 324 325 325 325 325 324 324 324 324 324 324 325 325 323 320 317 313 312 312 312 312 313 312 311 311 310
326 328 330 330 330 330 330 330 330 328 328 327 325 324 323 322 322 323 324 322 320 319 321 323 324 325 325 324 324 325 325 325 326 326 325 323 322 323 323 323 324 324 324 324 324 324 324 324 324 325 323 320 318 313 312 314 313 312 312 311 311 311 310
325 325 328 330 330 330 330 329 329 329 328 326 324 323 322 322 323 323 322 321 319 318 319 320 320 322 323 324 324 324 323 324 325 325 324 323 323 323 322 323 324 324 323 323 323 324 324 324 324 324 323 323 322 317 316 319 318 314 312 311 311 311 310
325 323 326 329 330 330 330 329 329 328 325 321 319 320 321 321 322 323 322 321 320 319 319 319 318 319 321 323 324 323 323 324 324 324 323 324 324 323 322 322 322 322 322 323 323 324 323 323 324 324 324 324 323 320 319 320 319 316 312 311 312 311 310
326 324 325 328 330 329 329 330 329 324 320 317 317 319 321 322 323 324 323 322 320 318 319 319 319 319 322 323 323 323 323 323 324 324 323 323 323 323 323 322 321 322 322 322 323 323 323 323 324 324 324 323 322 321 319 317 317 316 312 312 313 312 311
326 325 324 327 329 329 330 330 325 319 317 317 317 319 322 323 323 324 324 323 321 319 319 318 318 319 323 325 324 324 323 323 324 324 323 323 323 323 322 322 321 321 322 322 323 323 323 324 324 324 324 323 321 320 318 316 315 314 312 313 314 313 312
325 324 323 325 327 328 329 327 321 318 318 318 318 320 323 323 323 323 324 324 323 321 320 320 319 319 322 324 324 324 323 323 323 323 323 323 323 323 323 323 322 321 322 323 322 323 324 324 324 324 323 321 320 320 319 317 314 313 313 314 314 313 313
325 325 325 323 323 327 328 324 320 321 322 320 320 321 322 322 322 322 322 323 323 322 322 322 322 321 321 322 322 323 323 323 323 322 322 322 323 324 325 325 324 323 323 323 323 323 324 324 324 324 322 320 320 320 319 317 315 314 314 314 314 314 314
327 326 326 323 321 325 326 322 322 324 323 321 320 321 321 321 321 321 320 322 323 323 324 323 323 322 322 322 322 322 322 322 322 322 322 322 323 323 324 324 325 325 324 324 324 324 324 324 324 323 322 321 320 319 317 315 315 315 314 314 314 315 315
328 327 326 324 322 324 325 323 324 325 323 320 319 321 321 320 321 321 320 322 323 323 323 323 323 322 322 323 322 322 322 322 322 322 322 322 322 322 322 322 324 326 325 325 324 324 324 323 323 322 321 321 319 318 316 315 315 316 315 315 315 315 316
328 327 326 325 323 325 325 324 325 325 322 320 320 321 321 320 321 322 321 321 322 322 322 322 322 322 322 322 322 321 321 321 321 322 322 322 321 321 321 321 323 325 326 325 325 324 324 324 323 321 320 320 319 317 316 315 316 316 316 315 316 317 317
327 327 327 326 325 325 325 324 325 323 321 320 321 321 321 320 320 321 321 322 322 321 320 320 321 322 322 322 322 321 321 321 321 322 322 321 321 320 320 320 321 323 323 323 323 323 324 324 323 322 321 320 319 318 317 317 317 317 317 317 317 318 318
326 327 327 326 326 326 325 324 324 322 320 320 320 320 320 320 320 320 321 321 321 321 320 319 320 321 322 322 321 321 321 321 321 321 321 320 320 320 320 320 320 320 321 321 321 321 322 323 323 322 322 321 320 319 319 318 318 318 318 318 318 318 318
326 326 327 326 326 326 325 324 322 321 320 320 319 320 320 320 320 320 319 319 319 320 320 319 319 319 320 320 321 321 321 321 320 320 320 320 320 319 319 319 320 320 320 320 320 320 320 321 321 321 321 321 321 320 320 319 319 319 319 318 319 318 318
324 326 326 326 325 325 325 324 321 319 319 319 319 320 320 320 320 319 319 319 319 319 319 319 319 319 319 319 319 320 321 320 320 319 319 319 320 319 319 319 319 320 319 319 320 319 319 319 319 319 318 319 320 320 320 320 319 319 319 319 319 319 318
324 325 325 325 325 324 324 323 320 318 319 319 319 320 320 320 320 319 319 318 317 316 317 318 318 319 319 319 319 320 320 320 319 319 319 319 319 319 319 319 319 319 318 318 318 318 318 318 318 318 317 317 318 318 319 319 319 319 318 318 318 318 318
322 322 322 323 325 324 322 321 319 318 318 319 319 319 320 319 319 319 319 317 313 311 314 317 317 317 318 319 319 319 319 319 319 319 319 319 319 319 318 318 318 318 317 317 317 316 316 317 317 318 318 317 317 317 317 317 317 317 317 317 317 316 316
316 318 319 319 321 322 320 318 318 318 318 318 318 318 318 318 318 317 316 314 309 308 311 314 315 315 316 317 318 318 318 319 319 320 319 319 319 319 318 318 318 318 318 318 317 317 317 316 317 317 317 317 317 317 316 315 315 315 315 315 315 315 315
312 314 315 315 315 316 317 317 317 317 317 318 317 317 317 317 316 314 312 311 309 309 310 311 312 312 313 315 316 317 318 318 319 320 320 320 320 320 319 319 319 319 319 319 319 319 318 317 317 317 317 317 317 316 315 315 315 314 314 314 314 314 315
311 312 312 312 311 312 315 317 317 317 317 316 315 315 315 315 314 312 311 312 311 311 312 312 313 313 314 315 316 316 317 318 319 320 320 320 320 320 320 320 320 320 319 319 319 319 318 318 318 317 317 316 316 315 314 313 313 313 312 312 311 311 311
310 310 311 311 310 310 312 314 315 315 315 314 313 313 313 313 312 312 311 312 312 312 313 313 314 315 316 317 317 317 316 317 317 318 319 319 319 319 319 320 319 318 317 316 316 316 316 315 315 314 313 312 311 310 309 309 308 308 307 307 306 306 305
309 309 309 310 310 309 310 311 312 313 313 312 312 312 312 312 312 312 311 311 311 311 311 312 313 313 314 314 316 317 317 317 316 316 317 318 318 318 318 317 316 314 313 312 312 312 312 311 311 310 309 309 308 307 306 305 304 304 304 304 304 304 303
306 307 308 308 308 308 309 309 309 310 310 311 312 312 311 310 311 311 310 311 311 311 310 310 310 311 311 311 311 313 315 316 316 316 316 317 316 315 314 313 311 311 310 310 310 310 309 309 308 307 306 306 305 304 303 303 303 303 303 303 302 302 301
306 306 306 306 307 308 308 308 308 308 308 309 309 308 307 307 308 308 308 308 308 308 307 306 306 308 308 307 306 308 310 312 313 313 313 313 312 311 310 310 309 309 308 308 307 306 305 303 302 302 302 301 301 301 301 301 301 301 301 300 300 300 300
Wind_Speed
22 21 20 21 22 21 22 23 23 23 23 22 20 19 18 17 16 16 15 17 18 19 18 16 17 16 15 16 16 16 17 17 18 18 19 21 22 23 22 20 17 13 13 19 21 20 21 19 18 18 18 16 13 11 9 7 3 3 6 6 5 5 4
21 20 19 20 20 20 21 24 24 23 23 23 21 19 17 15 15 15 16 17 18 18 17 17 17 16 16 16 16 17 18 19 19 19 18 19 21 21 22 21 19 13 12 18 19 18 20 22 22 22 21 19 16 12 10 8 5 5 7 7 6 5 3
21 20 19 19 20 20 21 25 25 24 24 24 22 19 17 16 16 17 17 17 16 16 17 17 18 18 17 16 16 16 18 18 19 20 18 17 19 21 21 21 20 17 16 21 22 19 21 23 24 25 24 21 19 16 13 10 7 7 7 5 5 4 3
22 21 21 21 21 21 23 25 25 25 25 24 22 20 18 17 17 18 17 16 16 17 17 17 17 18 17 16 16 16 17 18 19 20 19 18 19 21 21 20 19 17 17 22 23 21 23 23 23 26 24 21 20 18 15 11 8 7 6 5 3 3 4
22 22 23 23 22 23 24 24 24 24 24 24 22 20 18 18 18 17 16 17 18 18 18 17 17 17 17 16 16 17 18 18 18 19 21 20 20 21 21 19 17 15 16 19 21 21 22 20 20 24 23 21 20 18 15 12 9 7 5 5 3 2 4
23 23 24 24 23 24 25 24 24 24 24 24 22 20 19 18 17 16 16 17 17 17 17 17 16 17 17 16 17 17 18 18 18 19 20 20 20 21 20 19 17 15 15 17 18 19 20 19 19 21 22 22 22 19 16 13 12 10 8 6 4 0 3
23 23 24 24 24 25 24 23 23 23 23 23 21 20 19 18 16 15 15 15 14 14 15 15 16 16 17 18 17 17 17 17 16 17 18 19 19 20 21 20 17 15 15 17 17 18 19 20 20 20 23 24 21 18 17 15 14 13 12 10 7 3 1
24 23 23 24 24 24 23 22 22 22 21 20 19 19 19 18 17 16 15 14 13 13 14 15 16 17 18 18 17 16 17 17 16 17 17 18 19 20 21 21 18 15 15 16 16 17 18 18 18 20 23 25 22 18 17 16 14 13 11 11 10 6 2
24 23 23 23 23 22 21 21 21 20 20 19 18 18 18 18 17 17 16 15 14 14 15 16 17 17 17 18 17 17 18 18 17 17 17 18 19 20 22 22 20 17 16 17 17 16 17 16 17 19 21 24 24 22 20 17 15 15 13 10 9 8 5
25 23 23 23 22 21 21 21 21 20 19 19 19 18 17 17 17 17 16 16 16 15 16 16 16 16 16 17 16 16 17 17 18 18 17 18 18 19 21 22 21 18 17 18 18 17 16 16 17 19 20 21 21 22 23 21 18 18 17 13 10 8 7
24 24 23 22 22 22 23 22 21 21 20 20 20 19 19 18 17 16 16 16 16 16 15 15 14 15 15 15 14 14 15 16 17 17 17 17 18 18 20 21 21 20 18 18 19 19 18 17 18 19 19 18 17 16 16 20 21 19 17 14 12 10 7
24 25 25 24 24 24 24 24 23 23 22 22 21 21 20 19 18 17 16 16 15 15 15 14 14 14 14 14 13 13 14 15 16 17 16 17 17 18 20 21 22 22 19 17 19 21 19 19 20 20 19 18 17 14 12 14 17 16 16 14 12 10 8
25 26 26 26 26 26 26 25 25 24 23 22 21 21 21 21 20 19 17 16 15 14 14 15 15 14 14 15 14 14 15 16 16 16 16 16 17 19 20 21 21 22 21 18 19 22 21 21 23 21 18 18 19 16 14 14 11 9 12 14 11 10 9
26 26 27 27 27 27 27 26 24 23 21 21 21 21 21 21 21 20 17 16 16 15 15 15 15 14 14 15 15 15 16 16 16 16 17 17 17 19 19 19 19 20 20 19 19 21 21 22 25 24 19 19 21 18 17 17 13 10 12 14 13 11 10
27 26 26 26 27 27 27 25 24 22 21 20 20 21 21 21 21 19 16 15 16 16 15 15 15 14 14 15 15 15 16 16 15 16 18 18 17 19 19 19 18 18 19 19 19 21 21 21 25 26 22 21 21 20 17 16 17 16 15 14 14 15 13
28 27 26 26 27 26 26 25 24 23 21 20 21 21 21 21 19 17 16 16 16 16 16 15 15 14 14 14 14 14 14 15 15 16 18 18 17 18 19 20 19 18 18 19 19 20 21 21 24 27 26 22 20 20 17 15 16 19 19 16 14 16 17
27 28 26 26 27 27 26 26 24 23 22 21 21 22 21 19 18 17 17 17 17 16 16 16 15 14 13 13 13 14 14 14 15 15 15 16 16 16 18 19 19 18 17 17 19 20 21 22 23 26 27 23 21 20 17 15 15 18 21 19 15 15 17
26 28 27 27 29 28 27 27 24 23 23 22 21 22 22 19 18 18 17 16 15 14 15 16 15 14 13 12 13 13 14 15 15 15 14 15 15 15 17 17 16 17 17 16 19 20 21 22 23 25 25 23 22 20 16 14 14 18 21 19 14 14 16
27 28 27 27 29 29 27 25 24 24 23 21 21 23 22 20 19 18 16 16 13 12 14 16 15 14 13 13 13 13 14 14 14 15 14 14 14 14 15 15 15 16 15 16 19 20 19 21 22 21 21 22 22 20 16 14 16 21 21 16 13 13 14
30 30 29 28 28 27 25 24 24 24 22 21 23 24 23 21 20 18 17 17 15 14 16 17 16 16 14 13 14 14 14 15 15 15 14 12 12 12 13 13 15 15 13 15 19 19 18 20 19 19 20 22 21 17 16 16 18 23 21 15 13 13 12
33 32 31 30 29 25 24 24 25 24 22 22 25 26 24 22 21 19 19 18 18 19 20 19 17 17 15 14 14 14 14 15 16 16 14 12 11 10 11 11 12 12 13 16 19 18 18 18 18 19 21 22 20 16 16 17 19 23 22 17 15 13 12
33 33 32 32 30 27 26 26 27 25 24 25 27 26 24 22 22 20 20 21 22 22 21 19 17 17 16 14 13 14 14 16 17 17 15 13 12 11 10 10 10 11 13 17 19 18 16 14 13 17 20 20 18 16 16 18 19 21 22 19 16 14 14
32 32 33 32 30 28 28 28 28 27 27 27 28 26 23 23 23 21 22 24 24 23 22 20 17 17 17 16 14 14 14 15 17 17 16 15 15 14 12 11 11 12 15 19 20 19 17 11 9 12 15 15 15 14 16 19 19 19 21 20 16 14 15
32 30 32 33 31 29 30 30 29 29 29 29 28 26 24 23 24 22 22 24 24 22 22 21 19 18 18 18 16 14 14 15 16 17 17 18 17 15 13 12 13 14 17 20 21 21 19 14 10 10 10 10 9 10 14 18 18 18 20 20 17 14 14
31 30 32 34 32 31 32 33 31 30 31 31 29 27 25 24 23 23 23 24 24 23 22 21 21 20 20 21 19 17 16 17 18 19 19 18 17 15 14 13 13 13 13 13 15 18 18 16 13 11 11 11 10 11 14 16 17 17 17 17 15 13 12
28 32 35 35 34 34 35 35 34 33 33 32 29 28 27 25 24 24 24 24 24 23 21 21 22 22 22 22 20 19 18 18 19 20 19 17 16 15 14 13 14 13 11 10 10 12 14 15 15 14 13 13 13 13 13 14 15 16 15 15 15 13 13
21 28 36 38 37 37 37 36 35 35 34 32 30 28 27 27 26 25 24 23 22 23 22 21 21 22 22 21 21 21 21 19 19 19 18 17 16 15 15 14 14 14 12 11 10 10 11 14 16 16 15 14 14 15 15 15 14 15 15 15 15 15 15
17 23 33 39 39 38 38 36 35 36 35 32 30 29 28 27 27 25 23 21 20 21 21 21 21 21 20 20 20 22 23 21 20 20 19 17 17 17 17 16 15 15 14 13 12 11 11 12 13 14 13 13 13 14 15 16 16 16 16 16 16 16 16
18 22 31 38 38 37 38 38 35 34 35 32 30 29 28 27 26 24 21 19 18 18 20 22 22 21 20 20 20 22 22 21 19 19 18 19 19 19 19 18 17 16 15 14 14 13 13 12 11 11 11 11 12 12 13 15 16 17 17 18 18 19 19
17 20 26 33 37 38 37 38 36 34 34 32 31 30 28 26 24 22 21 18 15 16 20 23 23 21 20 21 21 21 20 19 18 18 19 21 22 21 20 19 18 17 16 15 15 15 14 13 12 12 11 11 12 12 12 12 13 14 15 15 16 17 18
15 19 23 26 32 37 37 36 36 35 33 32 31 30 28 27 24 22 20 17 15 16 19 21 22 21 20 20 21 21 20 19 19 20 21 23 23 21 20 19 17 17 16 15 15 15 15 14 14 14 14 14 14 14 14 14 14 15 15 16 17 18 19
17 20 23 23 25 31 36 36 35 34 33 32 31 29 28 26 24 22 20 18 17 17 18 19 19 19 19 19 20 20 20 20 20 21 22 23 22 20 19 18 17 17 16 16 16 16 15 16 16 16 16 16 16 16 16 16 17 18 18 19 19 20 21
20 19 20 21 23 26 32 34 33 32 32 30 28 28 26 25 24 23 21 20 19 18 18 18 18 18 18 19 19 20 20 21 21 21 20 20 20 19 18 17 17 17 16 16 16 16 16 16 16 16 16 16 16 16 17 17 18 18 19 19 20 21 22
18 18 18 19 21 24 27 28 27 26 25 24 23 24 23 23 23 22 20 20 20 20 19 19 19 18 18 18 19 20 20 20 20 20 19 19 19 18 17 16 15 15 15 14 14 14 14 14 14 15 15 15 15 16 16 17 17 18 19 19 20 21 22
18 16 14 13 15 19 23 23 22 21 19 17 17 18 18 18 19 19 18 17 17 17 18 18 18 19 19 18 17 18 19 19 19 19 19 19 18 17 16 15 14 13 12 12 12 13 14 14 14 15 15 15 16 16 16 16 17 18 19 19 20 21 22
18 18 16 13 12 14 18 20 20 20 18 16 15 15 14 14 16 16 16 15 14 14 12 11 13 16 17 16 16 16 17 19 19 19 19 19 19 18 16 15 14 13 13 14 14 15 15 15 15 15 15 15 16 16 16 17 17 17 18 18 18 19 19
12 15 17 17 16 15 16 18 20 20 18 17 17 17 15 14 14 15 15 14 13 11 9 7 7 10 11 11 11 13 15 17 18 19 19 19 18 16 15 14 13 13 14 15 15 15 14 13 12 12 13 13 14 14 15 15 15 15 15 15 15 16 16
Wind_Direction
222 223 224 222 220 219 215 210 206 201 201 202 203 203 201 199 200 202 205 206 206 211 213 209 210 214 218 222 221 217 211 208 210 213 212 208 204 202 202 205 211 220 216 204 194 183 173 168 167 168 168 173 176 178 174 168 180 201 180 167 153 158 171
220 223 225 224 221 219 213 207 203 199 199 201 202 202 201 199 202 208 210 211 210 211 211 209 210 214 216 219 219 213 209 209 211 213 216 217 212 205 202 203 206 206 202 200 196 188 178 167 164 170 171 173 178 180 177 172 174 172 157 140 130 128 137
215 219 222 220 215 211 206 201 200 199 199 200 199 196 194 195 203 211 213 213 212 210 209 208 208 213 216 215 214 214 210 209 210 211 215 218 213 207 205 203 202 199 194 193 193 189 182 172 169 172 173 176 179 177 176 179 175 169 155 132 123 98 64
211 214 214 213 209 202 198 196 196 197 197 198 197 194 192 194 201 208 210 211 210 209 209 209 207 211 214 211 208 210 209 208 209 210 210 212 210 206 206 205 203 202 198 193 191 189 185 180 174 172 174 181 180 172 171 178 185 184 165 136 127 65 37
208 207 206 207 204 197 194 195 193 193 194 196 197 196 193 194 198 202 205 205 205 207 210 212 210 207 209 208 206 205 204 205 207 207 205 204 207 206 204 203 204 208 209 199 192 190 192 193 185 174 173 179 176 168 167 177 190 199 181 149 138 31 16
206 203 202 204 201 194 192 192 191 190 192 195 198 196 192 194 196 198 200 201 202 203 206 210 209 203 203 205 204 203 203 203 203 206 204 201 202 205 203 202 202 203 208 205 197 194 195 198 194 180 171 173 172 165 166 182 194 195 191 179 168 333 354
206 201 200 199 197 192 189 189 189 189 192 194 193 191 190 190 191 194 198 199 197 197 199 203 203 200 201 203 202 201 201 203 203 204 203 200 201 203 203 202 199 196 202 206 204 199 197 197 198 188 173 170 172 169 170 186 198 195 191 187 189 219 330
206 201 199 197 195 192 189 188 188 189 191 190 185 185 189 188 187 191 195 195 192 192 196 199 199 199 200 200 201 198 196 197 202 203 200 199 202 203 204 203 202 199 200 206 206 203 202 203 204 199 184 173 172 172 177 187 197 200 198 190 194 211 216
209 203 199 196 195 192 190 188 186 187 189 185 181 185 190 187 186 191 190 190 190 188 193 198 198 199 201 200 199 196 193 194 199 201 197 199 204 205 203 203 206 205 202 205 207 204 204 207 207 207 200 188 178 172 174 181 192 199 202 202 204 206 210
212 207 202 196 193 190 187 185 182 183 186 184 182 185 188 186 187 190 186 185 188 186 188 194 195 196 199 202 201 197 195 196 198 198 197 200 203 203 203 204 206 206 202 202 204 203 203 204 206 206 206 204 195 182 176 179 193 201 199 206 218 211 204
215 212 207 196 192 189 185 183 181 182 184 185 186 183 184 188 189 190 184 181 186 186 186 190 192 195 197 199 200 198 197 196 195 196 199 202 201 201 204 205 205 205 204 202 201 203 205 205 206 202 198 201 203 200 192 187 194 204 203 206 217 220 215
217 214 208 197 192 189 187 185 183 184 185 185 187 185 182 184 187 188 184 181 184 183 183 187 192 194 194 196 198 199 198 197 196 197 199 201 200 198 199 200 202 203 204 204 202 203 205 206 207 203 198 200 205 217 219 197 193 201 206 210 213 217 225
217 214 209 199 194 190 188 187 184 185 186 184 187 187 181 179 181 184 182 182 184 182 180 184 191 193 192 193 197 200 201 199 198 198 198 199 198 197 196 197 201 204 205 206 202 201 203 204 204 203 202 204 209 215 212 198 197 197 199 212 221 215 216
215 217 210 196 190 188 187 187 185 184 184 184 186 187 182 181 184 183 180 181 182 182 179 181 187 190 190 192 193 198 202 200 198 198 197 195 194 194 195 195 200 205 206 205 201 200 203 202 200 202 204 204 207 211 206 200 209 210 198 207 218 218 215
209 214 212 196 188 188 186 184 185 185 184 186 189 189 186 186 187 185 182 182 181 179 179 181 183 182 185 191 194 194 197 196 196 198 197 194 192 194 197 198 199 202 205 204 201 200 200 200 201 202 203 203 207 210 207 209 217 220 214 207 208 215 219
207 208 212 203 191 189 187 185 185 187 189 190 191 192 191 189 187 184 179 178 180 180 180 183 184 181 181 190 195 193 194 196 197 197 196 197 199 200 201 203 202 203 204 203 202 200 200 202 204 203 201 204 210 209 211 224 230 226 224 219 212 216 221
210 205 211 211 199 192 190 188 189 191 189 186 184 184 186 186 182 177 172 173 177 179 179 181 183 182 180 185 190 189 189 192 194 195 196 198 201 202 202 204 205 205 204 203 201 201 202 203 202 202 204 208 212 211 219 238 240 229 226 224 222 224 224
212 206 209 211 203 195 193 192 193 190 183 177 174 172 173 174 174 174 174 174 174 174 175 177 178 179 177 177 180 183 186 187 187 190 194 195 199 202 202 204 206 204 203 204 202 199 200 200 199 201 206 211 213 213 223 236 231 224 224 225 229 231 227
210 208 209 209 202 197 197 198 194 185 178 173 171 170 170 172 174 177 178 176 173 172 174 174 174 174 173 173 174 175 178 180 179 182 186 188 193 197 199 201 201 199 201 202 198 196 195 195 199 204 206 207 209 212 219 222 217 218 222 227 233 237 235
209 209 209 209 205 201 202 202 189 178 174 170 169 171 173 175 178 183 184 183 182 178 171 168 168 169 168 169 170 170 172 173 172 172 175 180 186 190 192 195 196 195 200 199 193 193 195 195 202 208 204 201 205 215 222 218 214 217 221 226 230 237 244
209 209 208 207 209 207 205 198 184 174 171 170 172 175 175 177 182 187 191 190 184 173 165 164 167 166 163 162 166 168 170 172 169 166 166 169 175 181 183 186 192 195 197 193 189 192 198 201 208 210 204 203 209 223 227 219 214 217 220 225 229 231 239
207 209 207 204 204 204 202 192 181 175 173 173 177 178 178 179 179 179 182 182 176 170 167 170 173 170 167 167 168 170 171 171 171 169 165 160 160 162 164 174 189 197 195 190 189 193 197 200 208 210 208 211 218 226 225 214 209 212 217 223 227 227 232
206 206 204 201 198 198 197 190 182 179 178 179 180 178 177 179 176 172 173 174 173 173 174 176 178 176 178 181 179 179 179 176 175 173 167 161 158 155 158 171 185 193 195 195 194 194 192 187 191 202 211 222 231 232 222 209 203 206 214 220 222 224 231
205 202 200 198 195 193 193 189 186 184 180 179 180 177 174 178 179 179 178 175 174 175 177 180 180 177 180 184 181 177 178 177 176 176 171 166 164 162 163 170 177 188 198 199 196 193 191 191 191 191 201 217 223 215 207 202 198 202 211 215 216 219 226
204 200 198 196 192 190 189 188 188 187 183 182 184 181 180 182 183 183 184 182 178 177 177 181 183 181 178 178 176 172 170 169 170 172 171 169 170 170 169 170 173 182 191 190 187 187 190 198 204 201 197 200 193 183 184 188 189 193 200 205 206 206 208
207 200 196 194 191 188 188 189 189 188 186 186 185 182 182 184 182 181 183 183 182 181 179 179 185 189 186 182 179 176 172 169 169 172 172 174 179 178 177 176 177 180 179 174 172 178 186 198 209 212 210 208 204 198 194 192 190 192 197 202 205 207 208
223 208 197 193 191 189 190 192 191 188 189 188 184 180 180 180 179 179 180 182 182 182 182 181 185 192 195 194 191 186 182 177 174 175 178 181 183 182 183 187 186 184 182 183 185 187 194 202 210 215 216 216 215 214 215 215 213 211 213 215 218 222 225
229 213 199 195 193 191 192 194 191 185 186 187 183 179 178 177 179 179 180 184 186 184 184 183 183 187 194 197 194 192 192 187 180 180 183 187 188 188 189 192 193 190 187 190 193 198 204 210 215 219 219 218 218 219 221 225 228 230 232 233 236 239 241
217 208 197 194 195 193 191 193 192 184 182 184 182 179 178 178 180 182 182 187 192 191 188 184 182 183 186 188 188 190 190 187 182 182 185 188 189 190 190 192 194 194 193 196 198 201 206 209 214 219 220 219 221 223 223 226 229 233 237 240 243 246 248
197 198 188 186 191 193 189 187 186 183 182 182 179 178 178 177 179 182 183 186 192 195 190 185 186 187 187 185 185 186 186 182 180 181 183 184 186 187 187 189 191 193 196 200 202 205 207 209 210 215 218 220 224 228 231 234 237 240 244 246 249 251 254
143 159 163 166 178 187 184 177 175 178 182 182 178 176 176 176 175 177 179 180 183 187 185 182 187 193 194 192 190 188 184 180 177 177 179 179 182 184 184 185 188 192 196 200 203 206 211 214 216 219 223 227 230 235 239 242 245 249 252 254 256 259 262
89 123 140 141 149 165 172 170 169 172 177 178 175 171 172 173 171 169 169 169 171 175 176 175 180 189 193 195 196 194 191 187 182 179 178 179 181 184 185 186 189 193 197 201 205 208 212 216 219 223 227 232 236 240 243 245 247 250 252 255 257 259 262
60 82 105 111 115 134 152 160 163 166 169 171 169 165 166 168 166 163 163 165 167 169 168 166 169 177 183 189 196 198 196 194 192 187 184 186 188 190 191 192 192 195 199 203 207 211 216 221 225 229 232 236 240 244 246 249 251 253 255 256 257 258 259
58 61 71 84 94 107 124 137 145 149 155 157 155 153 156 160 161 159 159 163 167 167 164 162 162 164 170 179 191 198 199 198 200 199 197 197 198 198 199 198 198 201 206 211 217 222 226 230 233 236 240 243 246 249 252 253 255 257 258 260 262 263 263
73 72 68 69 76 86 99 113 121 126 134 141 142 142 145 151 156 156 154 157 162 165 165 163 162 161 161 164 175 189 195 193 195 201 203 201 201 202 203 204 207 212 218 225 231 235 238 240 243 246 250 252 254 255 256 257 259 261 264 266 268 270 270
80 84 87 87 83 83 90 98 103 108 116 125 129 130 132 139 146 146 146 149 155 162 165 163 163 166 166 163 164 174 182 183 183 190 197 198 199 201 204 207 213 220 229 237 243 246 249 251 253 255 256 256 257 258 259 262 266 268 271 273 273 274 275
80 90 95 99 103 102 100 100 99 99 103 109 113 114 113 116 124 129 133 133 135 142 148 144 149 163 169 167 166 171 178 181 183 188 194 196 198 201 206 213 221 229 236 241 245 249 252 253 253 253 253 255 256 258 262 265 269 272 274 276 277 276 278